| time (UTC) | temp F | wind direction | speed knots | gust knots | rain 1hr in | rain 24hr in | rain mn in | humidity % | barometer mb |
| 20260505124837 | 66 | 175 | 4.3 | 11.3 | 0.00 | 0.00 | 0.00 | 65 | 1012.5 |
| 20260505124331 | 66 | 138 | 4.3 | 11.3 | 0.00 | 0.00 | 0.00 | 66 | 1012.4 |
| 20260505123832 | 65 | 163 | 5.2 | 11.3 | 0.00 | 0.00 | 0.00 | 68 | 1012.4 |
| 20260505123333 | 64 | 159 | 5.2 | 12.2 | 0.00 | 0.00 | 0.00 | 66 | 1012.4 |
| 20260505122832 | 65 | 300 | 5.2 | 12.2 | 0.00 | 0.00 | 0.00 | 66 | 1012.3 |
| 20260505122333 | 65 | 200 | 4.3 | 12.2 | 0.00 | 0.00 | 0.00 | 66 | 1012.3 |
| 20260505121832 | 64 | 163 | 5.2 | 9.6 | 0.00 | 0.00 | 0.00 | 68 | 1012.2 |
| 20260505121332 | 64 | 163 | 5.2 | 13.0 | 0.00 | 0.00 | 0.00 | 68 | 1012.2 |
| 20260505120831 | 63 | 173 | 5.2 | 13.0 | 0.00 | 0.00 | 0.00 | 69 | 1012.0 |
| 20260505120331 | 63 | 145 | 4.3 | 12.2 | 0.00 | 0.00 | 0.00 | 69 | 1012.0 |
| 20260505115832 | 63 | 202 | 5.2 | 12.2 | 0.00 | 0.00 | 0.00 | 69 | 1012.0 |
| 20260505115332 | 62 | 162 | 5.2 | 11.3 | 0.00 | 0.00 | 0.00 | 70 | 1011.9 |
| 20260505114832 | 62 | 181 | 5.2 | 12.2 | 0.00 | 0.00 | 0.00 | 71 | 1012.0 |
| 20260505114333 | 62 | 144 | 5.2 | 13.0 | 0.00 | 0.00 | 0.00 | 71 | 1012.0 |
| 20260505113832 | 62 | 192 | 5.2 | 13.0 | 0.00 | 0.00 | 0.00 | 71 | 1011.9 |
| 20260505113332 | 61 | 179 | 5.2 | 13.9 | 0.00 | 0.00 | 0.00 | 72 | 1011.8 |
| 20260505113058 | 61 | 142 | 6.1 | 13.9 | 0.00 | 0.00 | 0.00 | 72 | 1011.8 |
| 20260505112329 | 60 | 150 | 4.3 | 13.9 | 0.00 | 0.00 | 0.00 | 73 | 1011.8 |
| 20260505111829 | 60 | 148 | 4.3 | 11.3 | 0.00 | 0.00 | 0.00 | 74 | 1011.7 |
| 20260505111329 | 60 | 123 | 4.3 | 9.6 | 0.00 | 0.00 | 0.00 | 74 | 1011.8 |
| 20260505111052 | 59 | 178 | 3.5 | 9.6 | 0.00 | 0.00 | 0.00 | 75 | 1011.7 |
| 20260505110331 | 59 | 191 | 4.3 | 9.6 | 0.00 | 0.00 | 0.00 | 75 | 1011.6 |
| 20260505101811 | 58 | 162 | 3.5 | 8.7 | 0.00 | 0.00 | 0.00 | 75 | 1011.2 |
| 20260505101313 | 58 | 137 | 3.5 | 7.8 | 0.00 | 0.00 | 0.00 | 76 | 1011.2 |
| 20260505100811 | 58 | 144 | 2.6 | 7.0 | 0.00 | 0.00 | 0.00 | 76 | 1011.2 |
| 20260505100311 | 58 | 144 | 2.6 | 7.8 | 0.00 | 0.00 | 0.00 | 76 | 1011.3 |
| 20260505095811 | 58 | 115 | 2.6 | 7.8 | 0.00 | 0.00 | 0.00 | 76 | 1011.2 |
| 20260505095312 | 58 | 184 | 2.6 | 7.0 | 0.00 | 0.00 | 0.00 | 76 | 1011.1 |
| 20260505095035 | 58 | 143 | 2.6 | 7.0 | 0.00 | 0.00 | 0.00 | 76 | 1011.1 |
| 20260505094315 | 58 | 126 | 2.6 | 7.8 | 0.00 | 0.00 | 0.00 | 76 | 1011.0 |
| 20260505094039 | 58 | 179 | 2.6 | 10.4 | 0.00 | 0.00 | 0.00 | 76 | 1010.9 |
| 20260505093304 | 58 | 154 | 3.5 | 10.4 | 0.00 | 0.00 | 0.00 | 76 | 1010.9 |
| 20260505092759 | 58 | 178 | 2.6 | 8.7 | 0.00 | 0.00 | 0.00 | 76 | 1010.9 |
| 20260505092253 | 58 | 177 | 2.6 | 8.7 | 0.00 | 0.00 | 0.00 | 76 | 1010.8 |
| 20260505091742 | 58 | 167 | 3.5 | 10.4 | 0.00 | 0.00 | 0.00 | 76 | 1010.8 |
| 20260505091237 | 58 | 157 | 3.5 | 8.7 | 0.00 | 0.00 | 0.00 | 76 | 1010.8 |
| 20260505090730 | 58 | 136 | 3.5 | 8.7 | 0.00 | 0.00 | 0.00 | 76 | 1010.8 |
| 20260505090444 | 59 | 192 | 3.5 | 7.8 | 0.00 | 0.00 | 0.00 | 76 | 1010.8 |
| 20260505085715 | 59 | 155 | 3.5 | 8.7 | 0.00 | 0.00 | 0.00 | 76 | 1010.8 |
| 20260505085208 | 59 | 129 | 3.5 | 10.4 | 0.00 | 0.00 | 0.00 | 76 | 1010.8 |
| 20260505084659 | 59 | 177 | 2.6 | 10.4 | 0.00 | 0.00 | 0.00 | 76 | 1010.8 |
| 20260505084152 | 59 | 186 | 2.6 | 7.8 | 0.00 | 0.00 | 0.00 | 76 | 1010.8 |
| 20260505083647 | 59 | 184 | 2.6 | 8.7 | 0.00 | 0.00 | 0.00 | 76 | 1010.7 |
| 20260505083625 | 59 | 153 | 2.6 | 8.7 | 0.00 | 0.00 | 0.00 | 76 | 1010.7 |
| 20260505082630 | 60 | 151 | 3.5 | 8.7 | 0.00 | 0.00 | 0.00 | 75 | 1010.8 |
| 20260505082125 | 60 | 153 | 3.5 | 7.0 | 0.00 | 0.00 | 0.00 | 74 | 1010.8 |
| 20260505081618 | 60 | 150 | 3.5 | 7.8 | 0.00 | 0.00 | 0.00 | 73 | 1010.8 |
| 20260505081113 | 60 | 147 | 3.5 | 7.8 | 0.00 | 0.00 | 0.00 | 73 | 1010.8 |
| 20260505080614 | 60 | 104 | 3.5 | 8.7 | 0.00 | 0.00 | 0.00 | 73 | 1010.8 |
| 20260505080339 | 60 | 135 | 3.5 | 11.3 | 0.00 | 0.00 | 0.00 | 74 | 1010.8 |
| 20260505075609 | 60 | 142 | 4.3 | 11.3 | 0.00 | 0.00 | 0.00 | 75 | 1010.7 |
| 20260505075346 | 60 | 130 | 4.3 | 10.4 | 0.00 | 0.00 | 0.00 | 75 | 1010.7 |
| 20260505074838 | 60 | 145 | 4.3 | 11.3 | 0.00 | 0.00 | 0.00 | 75 | 1010.7 |
| 20260505074107 | 60 | 178 | 5.2 | 13.0 | 0.00 | 0.00 | 0.00 | 75 | 1010.6 |
| 20260505073606 | 60 | 162 | 4.3 | 13.0 | 0.00 | 0.00 | 0.00 | 75 | 1010.6 |
| 20260505073332 | 60 | 163 | 4.3 | 9.6 | 0.00 | 0.00 | 0.00 | 75 | 1010.6 |
| 20260505072606 | 60 | 143 | 3.5 | 9.6 | 0.00 | 0.00 | 0.00 | 76 | 1010.6 |
| 20260505072106 | 59 | 141 | 2.6 | 6.1 | 0.00 | 0.00 | 0.00 | 76 | 1010.5 |
| 20260505071606 | 60 | 181 | 2.6 | 6.1 | 0.00 | 0.00 | 0.00 | 76 | 1010.5 |
| 20260505071555 | 60 | 128 | 2.6 | 7.0 | 0.00 | 0.00 | 0.00 | 76 | 1010.5 |
| 20260505070830 | 59 | 133 | 2.6 | 7.8 | 0.00 | 0.00 | 0.00 | 76 | 1010.7 |
| 20260505070104 | 59 | 132 | 3.5 | 9.6 | 0.00 | 0.00 | 0.00 | 76 | 1010.8 |
| 20260505065558 | 59 | 134 | 3.5 | 10.4 | 0.00 | 0.00 | 0.00 | 76 | 1010.8 |
| 20260505065052 | 59 | 166 | 2.6 | 10.4 | 0.00 | 0.00 | 0.00 | 77 | 1010.9 |
| 20260505064551 | 59 | 140 | 1.7 | 6.1 | 0.00 | 0.00 | 0.00 | 77 | 1010.9 |
| 20260505064051 | 59 | 184 | 1.7 | 6.1 | 0.00 | 0.00 | 0.00 | 77 | 1010.8 |
| 20260505063554 | 59 | 169 | 2.6 | 7.0 | 0.00 | 0.00 | 0.00 | 77 | 1010.8 |
| 20260505063050 | 59 | 143 | 2.6 | 7.0 | 0.00 | 0.00 | 0.00 | 77 | 1010.9 |
| 20260505062549 | 59 | 173 | 1.7 | 5.2 | 0.00 | 0.00 | 0.00 | 76 | 1010.9 |
| 20260505062049 | 59 | 171 | 1.7 | 5.2 | 0.00 | 0.00 | 0.00 | 76 | 1010.8 |
| 20260505061549 | 58 | 139 | 1.7 | 5.2 | 0.00 | 0.00 | 0.00 | 77 | 1010.9 |
| 20260505061049 | 58 | 154 | 1.7 | 5.2 | 0.00 | 0.00 | 0.00 | 77 | 1010.8 |
| 20260505061034 | 58 | 170 | 1.7 | 4.3 | 0.00 | 0.00 | 0.00 | 77 | 1010.8 |
| 20260505060305 | 58 | 113 | 1.7 | 3.5 | 0.00 | 0.00 | 0.00 | 77 | 1010.9 |
| 20260505055549 | 57 | 150 | 1.7 | 4.3 | 0.00 | 0.00 | 0.00 | 78 | 1010.9 |
| 20260505055050 | 57 | 163 | 0.9 | 4.3 | 0.00 | 0.00 | 0.00 | 77 | 1010.9 |
| 20260505054549 | 57 | 122 | 0.9 | 3.5 | 0.00 | 0.00 | 0.00 | 77 | 1010.8 |
| 20260505054044 | 57 | 132 | 1.7 | 5.2 | 0.00 | 0.00 | 0.00 | 77 | 1010.8 |
| 20260505053544 | 57 | 138 | 1.7 | 7.0 | 0.00 | 0.00 | 0.00 | 77 | 1010.8 |
| 20260505053043 | 56 | 136 | 1.7 | 7.0 | 0.00 | 0.00 | 0.00 | 78 | 1010.9 |
| 20260505052545 | 55 | 169 | 1.7 | 3.5 | 0.00 | 0.00 | 0.00 | 78 | 1010.8 |
| 20260505052042 | 55 | 159 | 1.7 | 3.5 | 0.00 | 0.00 | 0.00 | 77 | 1011.0 |
| 20260505051541 | 55 | 108 | 1.7 | 6.1 | 0.00 | 0.00 | 0.00 | 77 | 1010.9 |
| 20260505051042 | 55 | 144 | 1.7 | 6.1 | 0.00 | 0.00 | 0.00 | 78 | 1010.9 |
| 20260505050541 | 55 | 149 | 0.9 | 3.5 | 0.00 | 0.00 | 0.00 | 78 | 1011.0 |
| 20260505041538 | 56 | 109 | 1.7 | 4.3 | 0.00 | 0.00 | 0.00 | 72 | 1010.8 |
| 20260505041039 | 56 | 103 | 1.7 | 3.5 | 0.00 | 0.00 | 0.00 | 70 | 1010.7 |
| 20260505040537 | 57 | 123 | 1.7 | 3.5 | 0.00 | 0.00 | 0.00 | 70 | 1010.7 |
| 20260505040038 | 57 | 133 | 1.7 | 3.5 | 0.00 | 0.00 | 0.00 | 70 | 1010.7 |
| 20260505035537 | 57 | 121 | 1.7 | 5.2 | 0.00 | 0.00 | 0.00 | 68 | 1010.6 |
| 20260505035301 | 58 | 94 | 2.6 | 5.2 | 0.00 | 0.00 | 0.00 | 67 | 1010.6 |
| 20260505034537 | 58 | 81 | 2.6 | 6.1 | 0.00 | 0.00 | 0.00 | 67 | 1010.7 |
| 20260505034038 | 59 | 86 | 3.5 | 7.0 | 0.00 | 0.00 | 0.00 | 66 | 1010.7 |
| 20260505033806 | 59 | 98 | 2.6 | 7.0 | 0.00 | 0.00 | 0.00 | 65 | 1010.7 |
| 20260505033039 | 59 | 71 | 2.6 | 8.7 | 0.00 | 0.00 | 0.00 | 65 | 1010.7 |
| 20260505032539 | 59 | 109 | 3.5 | 8.7 | 0.00 | 0.00 | 0.00 | 64 | 1010.7 |
| 20260505032039 | 59 | 123 | 2.6 | 7.0 | 0.00 | 0.00 | 0.00 | 64 | 1010.8 |
| 20260505031803 | 59 | 142 | 2.6 | 7.0 | 0.00 | 0.00 | 0.00 | 65 | 1010.8 |
| 20260505031040 | 58 | 123 | 2.6 | 7.0 | 0.00 | 0.00 | 0.00 | 65 | 1010.8 |
| 20260505030535 | 58 | 88 | 2.6 | 6.1 | 0.00 | 0.00 | 0.00 | 65 | 1010.8 |
| 20260505030028 | 58 | 93 | 2.6 | 5.2 | 0.00 | 0.00 | 0.00 | 66 | 1010.8 |
| 20260505025519 | 58 | 89 | 2.6 | 6.1 | 0.00 | 0.00 | 0.00 | 66 | 1010.7 |
| 20260505025233 | 58 | 87 | 2.6 | 6.1 | 0.00 | 0.00 | 0.00 | 66 | 1010.7 |
| 20260505024505 | 58 | 89 | 2.6 | 5.2 | 0.00 | 0.00 | 0.00 | 65 | 1010.8 |
| 20260505023954 | 58 | 92 | 2.6 | 5.2 | 0.00 | 0.00 | 0.00 | 64 | 1010.8 |
| 20260505023448 | 59 | 86 | 2.6 | 5.2 | 0.00 | 0.00 | 0.00 | 63 | 1010.7 |
| 20260505022943 | 59 | 84 | 2.6 | 5.2 | 0.00 | 0.00 | 0.00 | 62 | 1010.9 |
| 20260505022433 | 60 | 86 | 2.6 | 5.2 | 0.00 | 0.00 | 0.00 | 62 | 1010.8 |
| 20260505021927 | 60 | 92 | 2.6 | 5.2 | 0.00 | 0.00 | 0.00 | 61 | 1010.9 |
| 20260505021420 | 60 | 101 | 1.7 | 5.2 | 0.00 | 0.00 | 0.00 | 61 | 1011.0 |
| 20260505020911 | 60 | 121 | 1.7 | 5.2 | 0.00 | 0.00 | 0.00 | 61 | 1011.0 |
| 20260505020404 | 60 | 119 | 2.6 | 6.1 | 0.00 | 0.00 | 0.00 | 61 | 1011.0 |
| 20260505020124 | 60 | 122 | 1.7 | 6.1 | 0.00 | 0.00 | 0.00 | 60 | 1011.0 |
| 20260505015348 | 61 | 143 | 1.7 | 7.0 | 0.00 | 0.00 | 0.00 | 59 | 1011.1 |
| 20260505014842 | 61 | 107 | 2.6 | 7.0 | 0.00 | 0.00 | 0.00 | 59 | 1011.0 |
| 20260505014336 | 61 | 137 | 2.6 | 6.1 | 0.00 | 0.00 | 0.00 | 59 | 1011.0 |
| 20260505013826 | 60 | 156 | 1.7 | 6.1 | 0.00 | 0.00 | 0.00 | 59 | 1011.0 |
| 20260505013322 | 61 | 131 | 1.7 | 5.2 | 0.00 | 0.00 | 0.00 | 59 | 1010.8 |
| 20260505012814 | 61 | 112 | 2.6 | 7.0 | 0.00 | 0.00 | 0.00 | 59 | 1010.8 |
| 20260505012305 | 62 | 114 | 2.6 | 7.0 | 0.00 | 0.00 | 0.00 | 58 | 1010.7 |
| 20260505011759 | 62 | 118 | 3.5 | 7.8 | 0.00 | 0.00 | 0.00 | 57 | 1010.7 |
| 20260505011252 | 61 | 90 | 2.6 | 7.8 | 0.00 | 0.00 | 0.00 | 58 | 1010.7 |
| 20260505010743 | 61 | 135 | 1.7 | 7.0 | 0.00 | 0.00 | 0.00 | 57 | 1010.6 |
| 20260505010237 | 61 | 107 | 1.7 | 7.0 | 0.00 | 0.00 | 0.00 | 58 | 1010.6 |
| 20260505005949 | 62 | 112 | 2.6 | 7.0 | 0.00 | 0.00 | 0.00 | 57 | 1010.6 |
| 20260505005220 | 62 | 114 | 2.6 | 7.0 | 0.00 | 0.00 | 0.00 | 56 | 1010.5 |
| 20260505004715 | 63 | 101 | 1.7 | 6.1 | 0.00 | 0.00 | 0.00 | 55 | 1010.6 |
| 20260505004208 | 63 | 101 | 1.7 | 6.1 | 0.00 | 0.00 | 0.00 | 54 | 1010.5 |
| 20260505003658 | 64 | 126 | 2.6 | 6.1 | 0.00 | 0.00 | 0.00 | 53 | 1010.4 |
| 20260505003153 | 64 | 126 | 2.6 | 6.1 | 0.00 | 0.00 | 0.00 | 54 | 1010.5 |
| 20260505002904 | 64 | 134 | 2.6 | 6.1 | 0.00 | 0.00 | 0.00 | 53 | 1010.5 |
| 20260505002135 | 64 | 117 | 2.6 | 10.4 | 0.00 | 0.00 | 0.00 | 52 | 1010.3 |
| 20260505001628 | 65 | 142 | 2.6 | 10.4 | 0.00 | 0.00 | 0.00 | 51 | 1010.3 |
| 20260505001123 | 65 | 137 | 2.6 | 8.7 | 0.00 | 0.00 | 0.00 | 51 | 1010.3 |
| 20260505000610 | 65 | 167 | 2.6 | 8.7 | 0.00 | 0.00 | 0.00 | 50 | 1010.3 |
| 20260505000103 | 65 | 155 | 2.6 | 7.8 | 0.00 | 0.00 | 0.00 | 50 | 1010.4 |
| 20260504235754 | 66 | 117 | 2.6 | 7.8 | 0.00 | 0.00 | 0.00 | 48 | 1010.1 |
| 20260504235641 | 66 | 145 | 2.6 | 7.0 | 0.00 | 0.00 | 0.00 | 49 | 1010.3 |
| 20260504234542 | 67 | 134 | 3.5 | 7.8 | 0.00 | 0.00 | 0.00 | 48 | 1010.2 |
| 20260504234254 | 67 | 143 | 3.5 | 8.7 | 0.00 | 0.00 | 0.00 | 48 | 1010.2 |
| 20260504233532 | 67 | 141 | 3.5 | 8.7 | 0.00 | 0.00 | 0.00 | 47 | 1010.2 |
| 20260504233029 | 68 | 117 | 4.3 | 8.7 | 0.00 | 0.00 | 0.00 | 47 | 1010.3 |
| 20260504232529 | 68 | 117 | 4.3 | 11.3 | 0.00 | 0.00 | 0.00 | 46 | 1010.2 |
| 20260504232031 | 68 | 135 | 4.3 | 11.3 | 0.00 | 0.00 | 0.00 | 46 | 1010.3 |
| 20260504231528 | 68 | 119 | 4.3 | 8.7 | 0.00 | 0.00 | 0.00 | 46 | 1010.3 |
| 20260504231027 | 69 | 106 | 4.3 | 10.4 | 0.00 | 0.00 | 0.00 | 46 | 1010.2 |
| 20260504230528 | 69 | 128 | 3.5 | 10.4 | 0.00 | 0.00 | 0.00 | 45 | 1010.3 |
| 20260504230025 | 69 | 117 | 4.3 | 12.2 | 0.00 | 0.00 | 0.00 | 47 | 1010.2 |
| 20260504225526 | 69 | 121 | 5.2 | 12.2 | 0.00 | 0.00 | 0.00 | 45 | 1010.3 |
| 20260504225024 | 69 | 136 | 4.3 | 12.2 | 0.00 | 0.00 | 0.00 | 45 | 1010.3 |
| 20260504224523 | 69 | 126 | 5.2 | 12.2 | 0.00 | 0.00 | 0.00 | 46 | 1010.3 |
| 20260504224024 | 69 | 73 | 5.2 | 13.0 | 0.00 | 0.00 | 0.00 | 45 | 1010.3 |
| 20260504223523 | 69 | 128 | 5.2 | 13.0 | 0.00 | 0.00 | 0.00 | 45 | 1010.3 |
| 20260504223027 | 69 | 123 | 5.2 | 12.2 | 0.00 | 0.00 | 0.00 | 47 | 1010.3 |
| 20260504222526 | 69 | 131 | 6.1 | 16.5 | 0.00 | 0.00 | 0.00 | 45 | 1010.3 |
| 20260504222017 | 70 | 150 | 6.1 | 16.5 | 0.00 | 0.00 | 0.00 | 45 | 1010.3 |
| 20260504221511 | 70 | 60 | 6.1 | 13.9 | 0.00 | 0.00 | 0.00 | 45 | 1010.2 |
| 20260504221005 | 70 | 136 | 5.2 | 13.9 | 0.00 | 0.00 | 0.00 | 43 | 1010.3 |
| 20260504220454 | 70 | 179 | 3.5 | 13.0 | 0.00 | 0.00 | 0.00 | 45 | 1010.2 |
| 20260504220219 | 70 | 194 | 4.3 | 13.0 | 0.00 | 0.00 | 0.00 | 45 | 1010.2 |
| 20260504215450 | 70 | 111 | 5.2 | 13.9 | 0.00 | 0.00 | 0.00 | 45 | 1010.2 |
| 20260504214948 | 70 | 152 | 5.2 | 13.9 | 0.00 | 0.00 | 0.00 | 44 | 1010.3 |
| 20260504214448 | 70 | 140 | 6.1 | 15.6 | 0.00 | 0.00 | 0.00 | 45 | 1010.3 |
| 20260504213947 | 70 | 116 | 7.0 | 15.6 | 0.00 | 0.00 | 0.00 | 45 | 1010.3 |
| 20260504213446 | 70 | 138 | 6.1 | 13.0 | 0.00 | 0.00 | 0.00 | 44 | 1010.3 |
| 20260504212945 | 70 | 100 | 5.2 | 11.3 | 0.00 | 0.00 | 0.00 | 43 | 1010.3 |
| 20260504212445 | 70 | 105 | 7.0 | 15.6 | 0.00 | 0.00 | 0.00 | 45 | 1010.3 |
| 20260504211944 | 70 | 164 | 7.0 | 15.6 | 0.00 | 0.00 | 0.00 | 45 | 1010.3 |
| 20260504211711 | 70 | 144 | 6.1 | 15.6 | 0.00 | 0.00 | 0.00 | 45 | 1010.3 |
| 20260504210944 | 70 | 117 | 7.0 | 15.6 | 0.00 | 0.00 | 0.00 | 41 | 1010.4 |
| 20260504210446 | 70 | 76 | 7.0 | 15.6 | 0.00 | 0.00 | 0.00 | 42 | 1010.3 |
| 20260504210209 | 71 | 152 | 6.1 | 15.6 | 0.00 | 0.00 | 0.00 | 43 | 1010.3 |
| 20260504205441 | 71 | 194 | 5.2 | 15.6 | 0.00 | 0.00 | 0.00 | 45 | 1010.3 |
| 20260504204942 | 71 | 152 | 5.2 | 15.6 | 0.00 | 0.00 | 0.00 | 45 | 1010.3 |
| 20260504204704 | 70 | 130 | 7.8 | 15.6 | 0.00 | 0.00 | 0.00 | 45 | 1010.3 |
| 20260504204427 | 70 | 127 | 7.0 | 15.6 | 0.00 | 0.00 | 0.00 | 42 | 1010.2 |
| 20260504203441 | 71 | 109 | 5.2 | 13.9 | 0.00 | 0.00 | 0.00 | 46 | 1010.2 |
| 20260504202941 | 71 | 108 | 6.1 | 12.2 | 0.00 | 0.00 | 0.00 | 44 | 1010.3 |
| 20260504202442 | 71 | 117 | 6.1 | 12.2 | 0.00 | 0.00 | 0.00 | 47 | 1010.4 |
| 20260504201942 | 71 | 148 | 5.2 | 15.6 | 0.00 | 0.00 | 0.00 | 45 | 1010.4 |
| 20260504201442 | 70 | 136 | 6.1 | 15.6 | 0.00 | 0.00 | 0.00 | 44 | 1010.6 |
| 20260504201208 | 70 | 171 | 7.0 | 15.6 | 0.00 | 0.00 | 0.00 | 43 | 1010.7 |
| 20260504200442 | 70 | 142 | 5.2 | 13.9 | 0.00 | 0.00 | 0.00 | 44 | 1010.7 |
| 20260504195942 | 70 | 109 | 5.2 | 14.8 | 0.00 | 0.00 | 0.00 | 48 | 1010.8 |
| 20260504195442 | 70 | 155 | 6.1 | 14.8 | 0.00 | 0.00 | 0.00 | 44 | 1010.8 |
| 20260504194941 | 71 | 172 | 5.2 | 11.3 | 0.00 | 0.00 | 0.00 | 46 | 1010.9 |
| 20260504194706 | 70 | 167 | 6.1 | 13.9 | 0.00 | 0.00 | 0.00 | 47 | 1010.9 |
| 20260504193942 | 70 | 124 | 7.0 | 13.9 | 0.00 | 0.00 | 0.00 | 47 | 1011.0 |
| 20260504193437 | 69 | 144 | 7.8 | 16.5 | 0.00 | 0.00 | 0.00 | 47 | 1011.1 |
| 20260504192937 | 69 | 154 | 6.1 | 16.5 | 0.00 | 0.00 | 0.00 | 49 | 1011.3 |
| 20260504192438 | 70 | 118 | 6.1 | 15.6 | 0.00 | 0.00 | 0.00 | 45 | 1011.4 |
| 20260504192206 | 70 | 143 | 7.0 | 15.6 | 0.00 | 0.00 | 0.00 | 45 | 1011.4 |
| 20260504191432 | 69 | 212 | 7.0 | 13.0 | 0.00 | 0.00 | 0.00 | 47 | 1011.4 |
| 20260504191410 | 69 | 134 | 7.0 | 13.0 | 0.00 | 0.00 | 0.00 | 50 | 1011.5 |
| 20260504191026 | 69 | 126 | 6.1 | 13.0 | 0.00 | 0.00 | 0.00 | 48 | 1011.5 |
| 20260504185932 | 69 | 84 | 7.8 | 14.8 | 0.00 | 0.00 | 0.00 | 45 | 1011.5 |
| 20260504185658 | 69 | 119 | 7.0 | 14.8 | 0.00 | 0.00 | 0.00 | 48 | 1011.6 |
| 20260504184932 | 69 | 122 | 6.1 | 12.2 | 0.00 | 0.00 | 0.00 | 47 | 1011.7 |
| 20260504184436 | 69 | 119 | 6.1 | 12.2 | 0.00 | 0.00 | 0.00 | 47 | 1011.6 |
| 20260504183936 | 69 | 124 | 6.1 | 12.2 | 0.00 | 0.00 | 0.00 | 50 | 1011.6 |
| 20260504183429 | 70 | 127 | 5.2 | 12.2 | 0.00 | 0.00 | 0.00 | 46 | 1011.6 |
| 20260504182919 | 69 | 155 | 5.2 | 12.2 | 0.00 | 0.00 | 0.00 | 48 | 1011.6 |
| 20260504182414 | 70 | 167 | 5.2 | 12.2 | 0.00 | 0.00 | 0.00 | 48 | 1011.8 |
| 20260504181907 | 69 | 259 | 6.1 | 12.2 | 0.00 | 0.00 | 0.00 | 48 | 1011.8 |
| 20260504181357 | 69 | 167 | 4.3 | 11.3 | 0.00 | 0.00 | 0.00 | 51 | 1011.9 |
| 20260504180851 | 69 | 93 | 4.3 | 10.4 | 0.00 | 0.00 | 0.00 | 49 | 1011.9 |
| 20260504180607 | 69 | 248 | 4.3 | 10.4 | 0.00 | 0.00 | 0.00 | 49 | 1012.2 |
| 20260504175835 | 69 | 80 | 4.3 | 9.6 | 0.00 | 0.00 | 0.00 | 52 | 1012.2 |
| 20260504175330 | 69 | 71 | 4.3 | 9.6 | 0.00 | 0.00 | 0.00 | 47 | 1012.3 |
| 20260504174824 | 69 | 251 | 3.5 | 9.6 | 0.00 | 0.00 | 0.00 | 48 | 1012.2 |
| 20260504174314 | 69 | 142 | 4.3 | 9.6 | 0.00 | 0.00 | 0.00 | 47 | 1012.2 |
| 20260504173807 | 68 | 163 | 4.3 | 11.3 | 0.00 | 0.00 | 0.00 | 46 | 1012.3 |
| 20260504173301 | 68 | 138 | 5.2 | 11.3 | 0.00 | 0.00 | 0.00 | 48 | 1012.5 |
| 20260504172753 | 68 | 165 | 5.2 | 12.2 | 0.00 | 0.00 | 0.00 | 49 | 1012.5 |
| 20260504172246 | 68 | 165 | 5.2 | 13.9 | 0.00 | 0.00 | 0.00 | 49 | 1012.6 |
| 20260504171739 | 68 | 163 | 5.2 | 13.9 | 0.00 | 0.00 | 0.00 | 52 | 1012.5 |
| 20260504171230 | 68 | 155 | 5.2 | 13.9 | 0.00 | 0.00 | 0.00 | 52 | 1012.6 |
| 20260504170943 | 67 | 154 | 6.1 | 11.3 | 0.00 | 0.00 | 0.00 | 46 | 1012.7 |
| 20260504170216 | 67 | 141 | 6.1 | 13.0 | 0.00 | 0.00 | 0.00 | 48 | 1012.9 |
| 20260504151031 | 65 | 163 | 5.2 | 16.5 | 0.00 | 0.00 | 0.00 | 47 | 1014.0 |
| 20260504150530 | 65 | 151 | 4.3 | 8.7 | 0.00 | 0.00 | 0.00 | 53 | 1014.0 |
| 20260504141015 | 61 | 159 | 5.2 | 11.3 | 0.00 | 0.00 | 0.00 | 62 | 1014.1 |
| 20260504140515 | 61 | 171 | 5.2 | 12.2 | 0.00 | 0.00 | 0.00 | 61 | 1014.1 |
| 20260504130513 | 57 | 105 | 4.3 | 10.4 | 0.00 | 0.00 | 0.00 | 68 | 1014.6 |
| 20260504130237 | 57 | 148 | 5.2 | 13.0 | 0.00 | 0.00 | 0.00 | 70 | 1014.6 |